Location: Sungai Igah
(2.7333°N, 114.2500°E)
Time: 20:05:11
(UTC+00:00)

SWIFT - Pass Details

Date: 14 June 2021
Orbit: 543 x 559 km, 20.6° (Epoch: 25 July)

Event Time Altitude Azimuth Distance (km) Brightness Sun altitude
Exits shadow 21:27:59 - 203° (SSW) 1,882 4.6 -11.6°
Reaches altitude 10° 21:28:20 10° 200° (SSW) 1,793 4.5 -11.5°
Maximum altitude 21:30:58 16° 160° (SSE) 1,439 4.4 -10.9°
Drops below altitude 10° 21:33:37 10° 120° (ESE) 1,794 5.4 -10.3°
Sets 21:36:35 0° 99° (E) 2,686 6.9 -9.6°
